Location: Degersen
(52.2871°N, 9.5716°E)
Time: 00:07:31
(UTC+00:00)

Cosmos 1269 Rocket - Pass Details

Date: 20 January 2026
Orbit: 769 x 775 km, 74.1° (Epoch: 9 February)

Event Time Altitude Azimuth Distance (km) Brightness Sun altitude
Exits shadow 05:02:27 15° 215° (SW) 1,997 5.9 -20.3°
Maximum altitude 05:06:52 71° 297° (WNW) 824 3.9 -19.7°
Drops below altitude 10° 05:12:10 10° 22° (NNE) 2,335 6.7 -18.9°
Sets 05:14:34 0° 25° (NNE) 3,266 7.5 -18.5°
